Weather History for Waskish, MN

Change the Weather History Date:

Saturday, April 7, 2012

  Actual Average (KBDE) Record (KBDE)
Temperature  
Mean Temperature 45 °F -  
Max Temperature 48 °F 48 °F 73 °F (1987)
Min Temperature 42 °F 23 °F -11 °F (1936)
Degree Days  
Heating Degree Days 20    
Moisture  
Dew Point 33 °F    
Average Humidity 61    
Maximum Humidity 93    
Minimum Humidity 46    
Precipitation  
Precipitation 0.00 in - - ()
Sea Level Pressure  
Sea Level Pressure 29.91 in    
Wind  
Wind Speed 11 mph (South)    
Max Wind Speed 24 mph    
Max Gust Speed 29 mph    
Visibility 10 miles    
Events Rain    
Averages and records for this station are not official NWS values.
T = Trace of Precipitation, MM = Missing Value Source: NWS Daily Summary

Daily Weather History Graph

Daily Weather History Graph

Search for Another Location

Airport:

Trip Planner

Search our weather history database for the weather conditions in past years. The results will help you decide how hot, cold, wet, or windy it might be!

Date:

Astronomy

Apr. 07, 2012 Rise Set
Actual Time 6:43 AM CDT 7:57 PM CDT
Civil Twilight 6:11 AM CDT 8:29 PM CDT
Nautical Twilight 5:32 AM CDT 9:08 PM CDT
Astronomical Twilight 4:51 AM CDT 9:50 PM CDT
Moon 9:44 PM CDT (4/7) 6:47 AM CDT (4/7)
Length of Visible Light 14h 18m
Length of Day
13h 14m
Full, 99% of the Moon is Illuminated
Apr 7
Full
Apr 13
Last Quarter
Apr 21
New
Apr 29
First Quarter
May 5
Full

Hourly Weather History & Observations

Time (CDT) Temp. Windchill Dew Point Humidity Pressure Visibility Wind Dir Wind Speed Gust Speed Precip Events Conditions
12:08 AM 46.4 °F 42.4 °F 26.6 °F 46% 30.02 in 10.0 mi SE 8.1 mph - N/A   Clear
12:28 AM 46.4 °F 42.4 °F 26.6 °F 46% 30.01 in 10.0 mi ESE 8.1 mph - N/A   Clear
12:47 AM 46.4 °F 42.4 °F 26.6 °F 46% 30.01 in 10.0 mi ESE 8.1 mph - N/A   Clear
1:08 AM 44.6 °F 40.2 °F 26.6 °F 49% 30.00 in 10.0 mi ESE 8.1 mph - N/A   Clear
1:28 AM 44.6 °F 39.7 °F 26.6 °F 49% 29.99 in 10.0 mi ESE 9.2 mph - N/A   Clear
1:47 AM 44.6 °F 39.2 °F 26.6 °F 49% 29.98 in 10.0 mi ESE 10.4 mph 16.1 mph N/A   Clear
2:08 AM 46.4 °F 41.9 °F 26.6 °F 46% 29.97 in 10.0 mi ESE 9.2 mph - N/A   Clear
2:28 AM 46.4 °F 41.5 °F 28.4 °F 50% 29.96 in 10.0 mi ESE 10.4 mph 16.1 mph N/A   Scattered Clouds
2:47 AM 48.2 °F - 28.4 °F 46% 29.95 in 10.0 mi ESE 12.7 mph 18.4 mph N/A   Scattered Clouds
3:08 AM 48.2 °F - 28.4 °F 46% 29.95 in 10.0 mi SE 10.4 mph 19.6 mph N/A   Scattered Clouds
3:28 AM 46.4 °F 41.9 °F 28.4 °F 50% 29.95 in 10.0 mi SE 9.2 mph 16.1 mph N/A   Clear
3:47 AM 46.4 °F 41.5 °F 28.4 °F 50% 29.94 in 10.0 mi SE 10.4 mph 16.1 mph N/A   Clear
4:08 AM 46.4 °F 40.7 °F 28.4 °F 50% 29.93 in 10.0 mi SE 12.7 mph 18.4 mph N/A   Clear
4:28 AM 44.6 °F 38.8 °F 28.4 °F 53% 29.91 in 10.0 mi SE 11.5 mph 18.4 mph N/A   Clear
4:47 AM 44.6 °F 39.2 °F 28.4 °F 53% 29.91 in 10.0 mi SE 10.4 mph 16.1 mph N/A   Clear
5:08 AM 46.4 °F 41.5 °F 30.2 °F 53% 29.90 in 10.0 mi SE 10.4 mph 16.1 mph N/A   Clear
5:27 AM 46.4 °F 41.1 °F 30.2 °F 53% 29.89 in 10.0 mi SE 11.5 mph 19.6 mph N/A   Unknown
5:47 AM 44.6 °F 38.8 °F 30.2 °F 57% 29.89 in 10.0 mi SE 11.5 mph 16.1 mph N/A   Clear
6:08 AM 44.6 °F 38.1 °F 30.2 °F 57% 29.88 in 10.0 mi SE 13.8 mph 17.3 mph N/A   Clear
6:27 AM 44.6 °F 39.2 °F 30.2 °F 57% 29.88 in 10.0 mi SE 10.4 mph 19.6 mph N/A   Scattered Clouds
6:48 AM 44.6 °F 38.1 °F 30.2 °F 57% 29.88 in 10.0 mi SE 13.8 mph 19.6 mph N/A   Overcast
7:08 AM 46.4 °F 40.7 °F 30.2 °F 53% 29.88 in 10.0 mi SE 12.7 mph 19.6 mph N/A   Overcast
7:27 AM 46.4 °F 40.7 °F 30.2 °F 53% 29.87 in 10.0 mi SE 12.7 mph 19.6 mph N/A   Overcast
7:47 AM 46.4 °F 41.1 °F 32.0 °F 57% 29.88 in 10.0 mi SSE 11.5 mph 19.6 mph N/A   Overcast
8:08 AM 46.4 °F 41.1 °F 32.0 °F 57% 29.87 in 10.0 mi SSE 11.5 mph 20.7 mph N/A   Overcast
8:27 AM 46.4 °F 39.5 °F 32.0 °F 57% 29.85 in 10.0 mi SE 17.3 mph 25.3 mph N/A   Overcast
8:47 AM 46.4 °F 42.4 °F 33.8 °F 62% 29.87 in 10.0 mi SSE 8.1 mph 17.3 mph N/A   Overcast
9:08 AM 48.2 °F - 33.8 °F 58% 29.87 in 10.0 mi SSE 10.4 mph - N/A   Overcast
9:27 AM 48.2 °F - 33.8 °F 58% 29.87 in 10.0 mi SSE 8.1 mph 18.4 mph N/A   Overcast
9:48 AM 48.2 °F - 33.8 °F 58% 29.86 in 10.0 mi SSE 11.5 mph - N/A   Overcast
10:08 AM 48.2 °F - 33.8 °F 58% 29.86 in 10.0 mi SSE 9.2 mph 16.1 mph N/A   Overcast
10:27 AM 48.2 °F - 35.6 °F 62% 29.86 in 10.0 mi SSE 9.2 mph 17.3 mph N/A   Overcast
10:48 AM 48.2 °F - 35.6 °F 62% 29.86 in 10.0 mi SSE 9.2 mph - N/A   Overcast
11:08 AM 48.2 °F - 35.6 °F 62% 29.86 in 10.0 mi SSE 6.9 mph - N/A   Overcast
11:27 AM 48.2 °F - 35.6 °F 62% 29.86 in 10.0 mi South 8.1 mph - N/A   Overcast
11:48 AM 48.2 °F - 35.6 °F 62% 29.86 in 10.0 mi South 6.9 mph - N/A   Overcast
12:08 PM 48.2 °F - 35.6 °F 62% 29.87 in 10.0 mi South 9.2 mph - N/A   Overcast
12:27 PM 48.2 °F - 41.0 °F 76% 29.88 in 7.0 mi SW 11.5 mph 18.4 mph N/A   Overcast
12:48 PM 44.6 °F 38.8 °F 42.8 °F 93% 29.89 in 1.5 mi SW 11.5 mph - N/A   Drizzle
1:08 PM 44.6 °F 37.2 °F 42.8 °F 93% 29.90 in 1.5 mi SW 17.3 mph 21.9 mph N/A Rain Rain
1:27 PM 44.6 °F 38.4 °F 41.0 °F 87% 29.90 in 10.0 mi SW 12.7 mph - N/A   Overcast
1:48 PM 42.8 °F 35.4 °F 39.2 °F 87% 29.90 in 10.0 mi SSW 15.0 mph 18.4 mph N/A   Overcast
2:07 PM 44.6 °F 38.4 °F 39.2 °F 81% 29.90 in 10.0 mi SSW 12.7 mph 16.1 mph N/A   Overcast
2:27 PM 46.4 °F 40.1 °F 39.2 °F 76% 29.90 in 10.0 mi SW 15.0 mph 20.7 mph N/A   Overcast
2:48 PM 48.2 °F - 37.4 °F 66% 29.90 in 10.0 mi WSW 19.6 mph 25.3 mph N/A   Mostly Cloudy
3:08 PM 48.2 °F - 37.4 °F 66% 29.91 in 10.0 mi SW 24.2 mph 27.6 mph N/A   Overcast
3:27 PM 46.4 °F 39.5 °F 35.6 °F 66% 29.92 in 10.0 mi SW 17.3 mph 27.6 mph N/A   Overcast
3:48 PM 46.4 °F 39.2 °F 35.6 °F 66% 29.92 in 10.0 mi SW 18.4 mph 25.3 mph N/A   Overcast
4:07 PM 46.4 °F 39.8 °F 33.8 °F 62% 29.92 in 10.0 mi WSW 16.1 mph 21.9 mph N/A   Overcast
4:27 PM 46.4 °F 40.1 °F 35.6 °F 66% 29.92 in 10.0 mi WSW 15.0 mph 21.9 mph N/A   Overcast
4:48 PM 46.4 °F 39.8 °F 33.8 °F 62% 29.93 in 10.0 mi WSW 16.1 mph 24.2 mph N/A   Overcast
5:07 PM 44.6 °F 37.4 °F 33.8 °F 66% 29.93 in 10.0 mi WSW 16.1 mph 21.9 mph N/A   Overcast
5:27 PM 44.6 °F 36.6 °F 33.8 °F 66% 29.94 in 10.0 mi SW 19.6 mph 26.5 mph N/A   Overcast
5:48 PM 44.6 °F 36.6 °F 33.8 °F 66% 29.94 in 10.0 mi SW 19.6 mph 25.3 mph N/A   Overcast
6:07 PM 44.6 °F 38.4 °F 33.8 °F 66% 29.94 in 10.0 mi WSW 12.7 mph 23.0 mph N/A   Overcast
6:27 PM 44.6 °F 37.8 °F 33.8 °F 66% 29.95 in 10.0 mi WSW 15.0 mph - N/A   Overcast
6:48 PM 44.6 °F 38.1 °F 35.6 °F 71% 29.95 in 10.0 mi WSW 13.8 mph 19.6 mph N/A   Overcast
7:07 PM 44.6 °F 36.9 °F 33.8 °F 66% 29.95 in 10.0 mi WSW 18.4 mph 28.8 mph N/A   Overcast
7:27 PM 44.6 °F 36.9 °F 33.8 °F 66% 29.95 in 10.0 mi SW 18.4 mph 25.3 mph N/A   Overcast
7:48 PM 44.6 °F 38.1 °F 33.8 °F 66% 29.95 in 10.0 mi SW 13.8 mph - N/A   Overcast
8:07 PM 44.6 °F 36.9 °F 33.8 °F 66% 29.96 in 10.0 mi WSW 18.4 mph 26.5 mph N/A   Overcast
8:28 PM 44.6 °F 36.4 °F 32.0 °F 61% 29.97 in 10.0 mi WSW 20.7 mph 27.6 mph N/A   Overcast
8:48 PM 42.8 °F 34.3 °F 30.2 °F 61% 29.98 in 10.0 mi WSW 19.6 mph 32.2 mph N/A   Mostly Cloudy
9:07 PM 42.8 °F 33.1 °F 30.2 °F 61% 29.98 in 10.0 mi WSW 25.3 mph 35.7 mph N/A   Overcast
9:28 PM 42.8 °F 33.3 °F 30.2 °F 61% 29.99 in 10.0 mi WSW 24.2 mph 32.2 mph N/A   Overcast
9:48 PM 41.0 °F 30.0 °F 28.4 °F 61% 29.99 in 10.0 mi WSW 28.8 mph 34.5 mph N/A   Overcast
10:07 PM 39.2 °F 28.3 °F 28.4 °F 65% 30.00 in 10.0 mi WSW 25.3 mph 36.8 mph N/A   Mostly Cloudy
10:28 PM 39.2 °F 27.6 °F 28.4 °F 65% 30.00 in 10.0 mi WSW 28.8 mph 34.5 mph N/A   Scattered Clouds
10:48 PM 39.2 °F 28.3 °F 28.4 °F 65% 30.01 in 10.0 mi WSW 25.3 mph 36.8 mph N/A   Clear
11:07 PM 37.4 °F 26.1 °F 28.4 °F 70% 30.00 in 10.0 mi West 24.2 mph 31.1 mph N/A   Clear
11:28 PM 37.4 °F 26.6 °F 26.6 °F 65% 30.01 in 10.0 mi West 21.9 mph 29.9 mph N/A   Clear
11:48 PM 37.4 °F 26.9 °F 26.6 °F 65% 30.00 in 10.0 mi West 20.7 mph 32.2 mph N/A   Clear